Вернуться в каталог

STARLINK-36138

АктивенСвязьVLEO
NORAD 67030·PAYLOAD·🇺🇸 United States

Запущен Dec 11, 2025 с Cape Canaveral Space Force Station

Loading…

Ближайшие Пролёты (ближайшие 24 часа)

TLE

СвежийSource: CelesTrak SupGP

Эпоха: Sep 15, 2026, 03:18 UTC

1 67030C 25294A   26258.13798611 -.00027011  00000+0 -97810-3 0  2585
2 67030  43.0040  48.2818 0001804 272.5025  14.7533 15.27599000    18

Отслеживайте STARLINK-36138 в реальном времени с AllMySat

Download on the App Store